Yatton Keynell, United Kingdom

4:21 PM BST on April 20, 2019 (GMT +0100)
Yatton Keynell

Weather History for 03740 - August, 2016

Change the Weather History Date:

Wednesday, August 17, 2016

  Actual Average Record
Temperature  
Mean Temperature 64 °F -  
Max Temperature 78 °F 66 °F - ()
Min Temperature 50 °F 51 °F - ()
Degree Days  
Heating Degree Days 1    
Growing Degree Days 14 (Base 50)    
Moisture  
Dew Point 54 °F    
Average Humidity 65    
Maximum Humidity 95    
Minimum Humidity 37    
Precipitation  
Precipitation 0.00 in 0.08 in - ()
Sea Level Pressure  
Sea Level Pressure 29.92 in    
Wind  
Wind Speed 7 mph ()    
Max Wind Speed 13 mph    
Max Gust Speed -    
T = Trace of Precipitation, MM = Missing Value Source: Averaged Metar Reports

Daily Weather History Graph

Daily Weather History Graph

Search for Another Location

Airport or City:

Astronomy

Aug. 17, 2016 Rise Set
Actual Time 5:57 AM BST 8:25 PM BST
Civil Twilight 5:19 AM BST 9:02 PM BST
Nautical Twilight 4:32 AM BST 9:49 PM BST
Astronomical Twilight 3:36 AM BST 10:44 PM BST
Moon 7:49 PM BST (8/17) 4:44 AM BST (8/17)
Length of Visible Light 15h 42m
Length of Day
14h 28m
Waxing Gibbous, 99% of the Moon is Illuminated
Aug 17
Waxing Gibbous
Aug 18
Full
Aug 25
Last Quarter
Sep 1
New
Sep 9
First Quarter

Hourly Weather History & Observations

Time (BST) Temp. Dew Point Humidity Pressure Visibility Wind Dir Wind Speed Gust Speed Precip Events Conditions
12:00 AM 60 °F 52 °F 67% 30.03 in - SE 12.7 mph - -  
1:00 AM 59 °F 51 °F 68% 30.03 in - ESE 8.1 mph - -  
2:00 AM 57 °F 51 °F 73% 30.01 in - East 10.4 mph - -  
3:00 AM 55 °F 50 °F 78% 30.01 in - East 8.1 mph - -  
4:00 AM 54 °F 50 °F 82% 29.99 in - ENE 8.1 mph - -  
5:00 AM 52 °F 50 °F 89% 29.98 in - ENE 6.9 mph - -  
6:00 AM 51 °F 49 °F 92% 29.97 in - ENE 6.9 mph - -  
7:00 AM 52 °F 51 °F 94% 29.96 in - ENE 8.1 mph - -  
8:00 AM 54 °F 53 °F 95% 29.97 in - ENE 6.9 mph - -   Mostly Cloudy
9:00 AM 57 °F 54 °F 88% 29.96 in - ENE 5.8 mph - -   Scattered Clouds
10:00 AM 62 °F 57 °F 77% 29.95 in - ENE 8.1 mph - -   Mostly Cloudy
11:00 AM 65 °F 58 °F 70% 29.92 in - East 10.4 mph - -   Scattered Clouds
12:00 PM 71 °F 59 °F 57% 29.91 in - East 10.4 mph - -   Scattered Clouds
1:00 PM 74 °F 59 °F 49% 29.90 in - SSE 9.2 mph - -   Scattered Clouds
2:00 PM 76 °F 58 °F 43% 29.88 in - SSE 9.2 mph - -   Scattered Clouds
3:00 PM 76 °F 56 °F 40% 29.86 in - ESE 8.1 mph - -  
4:00 PM 77 °F 56 °F 38% 29.85 in - SE 6.9 mph - -  
5:00 PM 78 °F 56 °F 37% 29.84 in - South 4.6 mph - -  
6:00 PM 74 °F 56 °F 44% 29.84 in - SSW 4.6 mph - -  
7:00 PM 72 °F 55 °F 46% 29.84 in - SSW 3.5 mph - -  
8:00 PM 71 °F 55 °F 46% 29.84 in - South 3.5 mph - -   Mostly Cloudy
9:00 PM 68 °F 55 °F 54% 29.86 in - SW 4.6 mph - -   Overcast
10:00 PM 66 °F 57 °F 64% 29.87 in - SSE 3.5 mph - -   Scattered Clouds
11:00 PM 65 °F 57 °F 68% 29.85 in - East 3.5 mph - -   Mostly Cloudy